TimeEDT,TemperatureF,Dew PointF,Humidity,Sea Level PressureIn,VisibilityMPH,Wind Direction,Wind SpeedMPH,Gust SpeedMPH,PrecipitationIn,Events,Conditions,WindDirDegrees,DateUTC
12:51 AM,57.0,55.0,93,30.19,7.0,Calm,Calm,-,N/A,,Clear,0,2013-05-30 04:51:00
1:51 AM,55.9,54.0,93,30.21,8.0,Calm,Calm,-,N/A,,Clear,0,2013-05-30 05:51:00
2:51 AM,55.0,53.1,93,30.21,4.0,Calm,Calm,-,N/A,,Clear,0,2013-05-30 06:51:00
3:38 AM,53.6,51.8,94,30.24,5.0,Calm,Calm,-,N/A,,Partly Cloudy,0,2013-05-30 07:38:00
3:51 AM,53.1,51.1,93,30.22,3.0,Calm,Calm,-,N/A,,Partly Cloudy,0,2013-05-30 07:51:00
4:25 AM,53.6,51.8,94,30.25,2.0,Calm,Calm,-,N/A,,Scattered Clouds,0,2013-05-30 08:25:00
4:29 AM,53.6,51.8,94,30.25,3.0,Calm,Calm,-,N/A,,Mostly Cloudy,0,2013-05-30 08:29:00
4:34 AM,51.8,51.8,100,30.25,1.8,Calm,Calm,-,N/A,,Mostly Cloudy,0,2013-05-30 08:34:00
4:44 AM,51.8,51.8,100,30.25,0.5,Calm,Calm,-,N/A,Fog,Fog,0,2013-05-30 08:44:00
4:51 AM,53.1,52.0,96,30.24,0.2,Calm,Calm,-,N/A,Fog,Fog,0,2013-05-30 08:51:00
5:05 AM,51.8,50.0,94,30.26,0.5,Calm,Calm,-,N/A,Fog,Fog,0,2013-05-30 09:05:00
5:46 AM,51.8,50.0,94,30.26,1.2,Calm,Calm,-,N/A,,Scattered Clouds,0,2013-05-30 09:46:00
5:51 AM,52.0,50.0,93,30.25,2.0,Calm,Calm,-,N/A,,Scattered Clouds,0,2013-05-30 09:51:00
5:58 AM,51.8,50.0,94,30.27,1.5,Calm,Calm,-,N/A,,Scattered Clouds,0,2013-05-30 09:58:00
6:07 AM,51.8,50.0,94,30.27,2.0,Calm,Calm,-,N/A,,Mostly Cloudy,0,2013-05-30 10:07:00
6:14 AM,51.8,50.0,94,30.27,1.8,Calm,Calm,-,N/A,,Mostly Cloudy,0,2013-05-30 10:14:00
6:27 AM,51.8,51.8,100,30.27,0.2,Calm,Calm,-,N/A,Fog,Fog,0,2013-05-30 10:27:00
6:38 AM,51.8,51.8,100,30.28,0.5,Calm,Calm,-,N/A,Fog,Fog,0,2013-05-30 10:38:00
6:51 AM,53.1,52.0,96,30.26,0.2,Calm,Calm,-,N/A,Fog,Fog,0,2013-05-30 10:51:00
6:58 AM,53.6,51.8,94,30.28,1.0,Calm,Calm,-,N/A,,Mist,0,2013-05-30 10:58:00
7:08 AM,55.4,53.6,94,30.28,1.8,Calm,Calm,-,N/A,,Partly Cloudy,0,2013-05-30 11:08:00
7:15 AM,55.4,53.6,94,30.28,2.0,Calm,Calm,-,N/A,,Clear,0,2013-05-30 11:15:00
7:29 AM,55.4,55.4,100,30.28,3.0,Calm,Calm,-,N/A,,Clear,0,2013-05-30 11:29:00
7:51 AM,59.0,55.9,90,30.26,8.0,Calm,Calm,-,N/A,,Clear,0,2013-05-30 11:51:00
8:51 AM,66.0,57.9,75,30.27,10.0,Calm,Calm,-,N/A,,Clear,0,2013-05-30 12:51:00
9:51 AM,72.0,61.0,68,30.28,10.0,Calm,Calm,-,N/A,,Partly Cloudy,0,2013-05-30 13:51:00
10:51 AM,79.0,62.1,56,30.26,10.0,Calm,Calm,-,N/A,,Clear,0,2013-05-30 14:51:00
11:51 AM,81.0,60.1,49,30.25,10.0,North,4.6,-,N/A,,Clear,360,2013-05-30 15:51:00
12:51 PM,82.0,60.1,47,30.23,10.0,West,5.8,-,N/A,,Clear,260,2013-05-30 16:51:00
1:51 PM,82.9,57.0,41,30.21,10.0,Calm,Calm,-,N/A,,Clear,0,2013-05-30 17:51:00
2:51 PM,84.0,60.1,44,30.19,10.0,NW,9.2,-,N/A,,Clear,320,2013-05-30 18:51:00
3:51 PM,86.0,57.9,38,30.18,10.0,Variable,4.6,-,N/A,,Partly Cloudy,0,2013-05-30 19:51:00
4:51 PM,86.0,57.9,38,30.17,10.0,Calm,Calm,-,N/A,,Partly Cloudy,0,2013-05-30 20:51:00
5:51 PM,79.0,55.0,44,30.17,10.0,SSE,10.4,-,N/A,,Mostly Cloudy,160,2013-05-30 21:51:00
6:51 PM,82.0,57.9,44,30.17,10.0,Calm,Calm,-,N/A,,Clear,0,2013-05-30 22:51:00
7:51 PM,75.9,63.0,64,30.16,10.0,Calm,Calm,-,N/A,,Clear,0,2013-05-30 23:51:00
8:51 PM,70.0,61.0,73,30.15,10.0,Calm,Calm,-,N/A,,Clear,0,2013-05-31 00:51:00
9:51 PM,64.9,62.1,90,30.17,10.0,Calm,Calm,-,N/A,,Clear,0,2013-05-31 01:51:00
10:51 PM,62.1,59.0,90,30.18,10.0,Calm,Calm,-,N/A,,Clear,0,2013-05-31 02:51:00
11:51 PM,59.0,55.9,90,30.19,10.0,Calm,Calm,-,N/A,,Clear,0,2013-05-31 03:51:00